Location: Boiro
(42.6475°N, 8.8834°W)
Time: 22:46:20
(UTC+01:00)

A-11 Canister half - Pass Details

Date: 02 December 2021
Orbit: 1516 x 1684 km, 47.2° (Epoch: 18 January)

Event Time Altitude Azimuth Distance (km) Brightness Sun altitude
Rises 13:05:32 0° 286° (WNW) 4,864 11.4 25.2°
Reaches altitude 10° 13:08:40 10° 288° (WNW) 3,896 11.0 25.2°
Maximum altitude 13:18:44 76° 15° (NNE) 1,723 9.5 25.3°
Drops below altitude 10° 13:28:57 10° 101° (E) 3,944 11.4 25.3°
Sets 13:32:08 0° 103° (ESE) 4,927 11.8 25.3°
